Location: Rio Tanui
(39.9167°N, 8.5167°E)
Time: 17:28:19
(UTC+00:00)

Meteor 2-2 Rocket - Pass Details

Date: 25 June 2024
Orbit: 851 x 928 km, 81.3° (Epoch: 14 July)

Event Time Altitude Azimuth Distance (km) Brightness Sun altitude
Rises 03:09:46 0° 337° (NNW) 3,426 7.6 -8.4°
Reaches altitude 10° 03:12:36 10° 324° (NW) 2,486 6.7 -8.0°
Maximum altitude 03:17:01 24° 272° (W) 1,681 5.4 -7.3°
Drops below altitude 10° 03:21:28 10° 220° (SW) 2,490 6.0 -6.7°
Enters shadow 03:22:33 - 213° (SSW) 2,835 6.3 -6.5°
